TimeCDT,TemperatureF,Dew PointF,Humidity,Sea Level PressureIn,VisibilityMPH,Wind Direction,Wind SpeedMPH,Gust SpeedMPH,PrecipitationIn,Events,Conditions,WindDirDegrees,DateUTC
12:10 AM,15.8,14.0,93,30.30,0.2,South,3.5,-,N/A,Fog,Light Freezing Fog,170,2013-03-29 05:10:00
12:39 AM,15.8,14.0,93,30.29,0.2,Calm,Calm,-,N/A,Fog,Light Freezing Drizzle,0,2013-03-29 05:39:00
12:55 AM,16.3,14.2,91,30.29,0.2,SSE,4.6,-,0.00,Fog,Light Freezing Fog,160,2013-03-29 05:55:00
1:33 AM,15.8,14.0,93,30.29,0.2,SSE,3.5,-,N/A,Fog,Light Freezing Fog,150,2013-03-29 06:33:00
1:55 AM,15.6,13.5,91,30.28,0.2,SE,3.5,-,0.00,Fog,Light Freezing Fog,130,2013-03-29 06:55:00
2:12 AM,15.8,14.0,93,30.28,0.2,SE,4.6,-,N/A,Fog,Light Freezing Fog,130,2013-03-29 07:12:00
2:55 AM,14.2,11.8,90,30.27,0.2,SSE,3.5,-,0.00,Fog,Light Freezing Fog,150,2013-03-29 07:55:00
3:08 AM,14.0,12.2,93,30.27,0.2,SE,4.6,-,N/A,Fog,Light Freezing Fog,140,2013-03-29 08:08:00
3:12 AM,14.0,12.2,93,30.27,0.5,SSE,4.6,-,N/A,Fog,Light Freezing Fog,150,2013-03-29 08:12:00
3:15 AM,14.0,12.2,93,30.27,0.2,SSE,3.5,-,N/A,Fog,Light Freezing Fog,150,2013-03-29 08:15:00
3:21 AM,14.0,10.4,86,30.26,0.2,SSE,3.5,-,N/A,Fog,Light Freezing Fog,150,2013-03-29 08:21:00
3:22 AM,14.0,10.4,86,30.27,0.2,SE,3.5,-,N/A,Fog,Light Freezing Fog,140,2013-03-29 08:22:00
3:43 AM,14.0,10.4,86,30.27,0.2,South,3.5,-,N/A,Fog,Light Freezing Fog,180,2013-03-29 08:43:00
3:44 AM,14.0,10.4,86,30.27,0.2,South,3.5,-,N/A,Fog,Light Freezing Fog,170,2013-03-29 08:44:00
3:48 AM,14.0,10.4,86,30.27,0.5,Calm,Calm,-,N/A,Fog,Light Freezing Fog,0,2013-03-29 08:48:00
3:55 AM,13.3,10.8,90,30.27,0.5,Calm,Calm,-,0.00,Fog,Light Freezing Fog,0,2013-03-29 08:55:00
3:59 AM,14.0,10.4,86,30.27,0.2,Calm,Calm,-,N/A,Fog,Light Freezing Fog,0,2013-03-29 08:59:00
4:11 AM,14.0,10.4,86,30.26,0.2,Calm,Calm,-,N/A,Fog,Light Freezing Fog,0,2013-03-29 09:11:00
4:18 AM,14.0,10.4,86,30.26,0.2,Calm,Calm,-,N/A,Fog,Light Freezing Fog,0,2013-03-29 09:18:00
4:24 AM,14.0,10.4,86,30.26,0.2,Calm,Calm,-,N/A,Fog,Light Freezing Drizzle,0,2013-03-29 09:24:00
4:55 AM,12.9,10.4,90,30.25,0.2,Calm,Calm,-,0.00,Fog,Light Freezing Fog,0,2013-03-29 09:55:00
5:00 AM,14.0,10.4,86,30.25,0.2,SE,3.5,-,N/A,Fog,Light Freezing Fog,130,2013-03-29 10:00:00
5:21 AM,14.0,10.4,86,30.25,0.2,SE,3.5,-,N/A,Fog,Light Freezing Fog,130,2013-03-29 10:21:00
5:28 AM,14.0,10.4,86,30.24,0.5,SE,3.5,-,N/A,Fog,Light Freezing Fog,140,2013-03-29 10:28:00
5:30 AM,14.0,10.4,86,30.24,0.2,Calm,Calm,-,N/A,Fog,Light Freezing Drizzle,0,2013-03-29 10:30:00
5:43 AM,14.0,10.4,86,30.25,0.5,Calm,Calm,-,N/A,Fog,Light Freezing Fog,0,2013-03-29 10:43:00
5:48 AM,14.0,10.4,86,30.24,0.2,Calm,Calm,-,N/A,Fog,Light Freezing Fog,0,2013-03-29 10:48:00
5:50 AM,14.0,10.4,86,30.24,0.2,Calm,Calm,-,N/A,Fog,Light Freezing Fog,0,2013-03-29 10:50:00
5:55 AM,13.3,10.8,90,30.24,0.2,Calm,Calm,-,0.00,Fog,Light Freezing Fog,0,2013-03-29 10:55:00
5:57 AM,14.0,10.4,86,30.24,0.2,Calm,Calm,-,N/A,Fog,Light Freezing Fog,0,2013-03-29 10:57:00
6:01 AM,14.0,10.4,86,30.24,0.2,Calm,Calm,-,N/A,Fog,Light Freezing Fog,0,2013-03-29 11:01:00
6:03 AM,14.0,10.4,86,30.24,0.2,Calm,Calm,-,N/A,Fog,Light Freezing Fog,0,2013-03-29 11:03:00
6:28 AM,14.0,10.4,86,30.24,0.2,Calm,Calm,-,N/A,Fog,Light Freezing Fog,0,2013-03-29 11:28:00
6:35 AM,14.0,10.4,86,30.24,0.2,Calm,Calm,-,N/A,Fog,Light Freezing Fog,0,2013-03-29 11:35:00
6:40 AM,12.2,10.4,92,30.24,0.5,Calm,Calm,-,N/A,Fog,Light Freezing Drizzle,0,2013-03-29 11:40:00
6:52 AM,12.2,10.4,92,30.24,0.2,Calm,Calm,-,N/A,Fog,Light Freezing Fog,0,2013-03-29 11:52:00
6:55 AM,12.6,9.9,89,30.24,0.2,Calm,Calm,-,0.00,Fog,Light Freezing Fog,0,2013-03-29 11:55:00
7:02 AM,12.2,10.4,92,30.24,0.2,Calm,Calm,-,N/A,Fog,Light Freezing Drizzle,0,2013-03-29 12:02:00
7:15 AM,12.2,10.4,92,30.23,0.2,Calm,Calm,-,N/A,Fog,Light Freezing Fog,0,2013-03-29 12:15:00
7:22 AM,12.2,10.4,92,30.23,0.2,Calm,Calm,-,N/A,Fog,Light Freezing Fog,0,2013-03-29 12:22:00
7:55 AM,11.3,8.6,89,30.24,0.2,Calm,Calm,-,0.00,Fog,Light Freezing Fog,0,2013-03-29 12:55:00
8:05 AM,10.4,8.6,92,30.23,0.2,ESE,3.5,-,N/A,Fog,Light Freezing Fog,120,2013-03-29 13:05:00
8:08 AM,10.4,8.6,92,30.23,0.2,SE,3.5,-,N/A,Fog,Light Freezing Fog,130,2013-03-29 13:08:00
8:16 AM,10.4,8.6,92,30.23,0.2,Calm,Calm,-,N/A,Fog,Light Freezing Drizzle,0,2013-03-29 13:16:00
8:41 AM,10.4,8.6,92,30.23,0.2,SE,3.5,-,N/A,Fog,Light Freezing Drizzle,140,2013-03-29 13:41:00
8:45 AM,10.4,8.6,92,30.23,0.2,SSE,3.5,-,N/A,Fog,Light Freezing Drizzle,150,2013-03-29 13:45:00
8:55 AM,10.6,7.5,87,30.11,0.2,SE,3.5,-,0.00,Fog,Light Freezing Fog,140,2013-03-29 13:55:00
8:56 AM,10.4,8.6,92,30.22,0.2,SE,3.5,-,N/A,Fog,Light Freezing Fog,140,2013-03-29 13:56:00
9:00 AM,10.4,8.6,92,30.22,0.2,SE,3.5,-,N/A,Fog,Light Freezing Fog,140,2013-03-29 14:00:00
9:03 AM,10.4,8.6,92,30.22,0.2,SE,3.5,-,N/A,Fog,Light Freezing Fog,140,2013-03-29 14:03:00
9:11 AM,10.4,6.8,85,30.11,0.2,SE,2.3,-,N/A,Fog,Light Freezing Fog,140,2013-03-29 14:11:00
9:37 AM,10.4,8.6,92,30.21,0.5,Calm,Calm,-,N/A,Fog,Light Freezing Fog,0,2013-03-29 14:37:00
9:43 AM,12.2,8.6,85,30.21,0.8,Calm,Calm,-,N/A,,Mist,0,2013-03-29 14:43:00
9:44 AM,12.2,8.6,85,30.21,1.0,Calm,Calm,-,N/A,,Mist,0,2013-03-29 14:44:00
9:47 AM,12.2,8.6,85,30.22,1.2,Calm,Calm,-,N/A,,Mostly Cloudy,0,2013-03-29 14:47:00
9:53 AM,12.2,8.6,85,30.21,1.0,Calm,Calm,-,N/A,,Mist,0,2013-03-29 14:53:00
9:55 AM,11.7,8.6,88,30.21,0.8,Calm,Calm,-,0.00,,Mist,0,2013-03-29 14:55:00
9:56 AM,12.2,8.6,85,30.22,0.8,Calm,Calm,-,N/A,,Mist,0,2013-03-29 14:56:00
10:02 AM,12.2,8.6,85,30.21,0.5,Calm,Calm,-,N/A,Fog,Light Freezing Fog,0,2013-03-29 15:02:00
10:03 AM,12.2,8.6,85,30.21,0.8,Calm,Calm,-,N/A,,Mist,0,2013-03-29 15:03:00
10:05 AM,12.2,8.6,85,30.21,0.8,Calm,Calm,-,N/A,,Mist,0,2013-03-29 15:05:00
10:06 AM,12.2,8.6,85,30.21,0.8,Calm,Calm,-,N/A,,Mist,0,2013-03-29 15:06:00
10:10 AM,12.2,8.6,85,30.21,1.0,Calm,Calm,-,N/A,,Mist,0,2013-03-29 15:10:00
10:11 AM,12.2,8.6,85,30.21,0.8,Calm,Calm,-,N/A,,Mist,0,2013-03-29 15:11:00
10:20 AM,12.2,10.4,92,30.22,0.8,Calm,Calm,-,N/A,,Mist,0,2013-03-29 15:20:00
10:21 AM,12.2,10.4,92,30.21,0.8,Calm,Calm,-,N/A,,Mist,0,2013-03-29 15:21:00
10:23 AM,12.2,10.4,92,30.21,1.0,Calm,Calm,-,N/A,,Mist,0,2013-03-29 15:23:00
10:25 AM,12.2,10.4,92,30.21,1.2,Calm,Calm,-,N/A,Snow,Light Snow,0,2013-03-29 15:25:00
10:27 AM,12.2,10.4,92,30.21,2.0,Calm,Calm,-,N/A,Snow,Light Snow,0,2013-03-29 15:27:00
10:29 AM,12.2,10.4,92,30.21,3.0,Calm,Calm,-,N/A,Snow,Light Snow,0,2013-03-29 15:29:00
10:49 AM,14.0,10.4,86,30.20,6.0,SE,3.5,-,N/A,Snow,Light Snow,130,2013-03-29 15:49:00
10:55 AM,14.0,11.1,88,30.19,5.0,ESE,4.6,-,0.00,Snow,Light Snow,120,2013-03-29 15:55:00
11:55 AM,15.6,12.9,89,30.19,10.0,SSE,4.6,-,0.00,,Scattered Clouds,150,2013-03-29 16:55:00
12:55 PM,19.0,16.7,91,30.16,10.0,SE,5.8,-,N/A,,Mostly Cloudy,140,2013-03-29 17:55:00
1:55 PM,22.1,20.1,92,30.13,10.0,SE,9.2,-,N/A,,Clear,140,2013-03-29 18:55:00
2:55 PM,24.3,22.6,94,30.15,10.0,NW,8.1,-,N/A,,Partly Cloudy,320,2013-03-29 19:55:00
3:55 PM,26.4,25.0,94,30.12,10.0,Calm,Calm,-,N/A,,Partly Cloudy,0,2013-03-29 20:55:00
4:40 PM,26.6,24.8,93,30.11,8.0,Calm,Calm,-,N/A,,Mostly Cloudy,0,2013-03-29 21:40:00
4:42 PM,26.6,24.8,93,30.11,9.0,South,4.6,-,N/A,,Mostly Cloudy,170,2013-03-29 21:42:00
4:55 PM,26.8,25.5,95,30.10,10.0,SSE,5.8,-,0.00,,Mostly Cloudy,150,2013-03-29 21:55:00
5:17 PM,26.6,26.6,100,30.10,9.0,South,5.8,-,N/A,,Mostly Cloudy,180,2013-03-29 22:17:00
5:23 PM,26.6,26.6,100,30.09,9.0,Calm,Calm,-,N/A,,Mostly Cloudy,0,2013-03-29 22:23:00
5:55 PM,27.7,26.4,95,30.08,9.0,SSE,4.6,-,0.00,,Overcast,150,2013-03-29 22:55:00
6:55 PM,28.8,27.5,95,30.07,9.0,SSE,5.8,-,N/A,,Mostly Cloudy,150,2013-03-29 23:55:00
7:55 PM,26.2,25.0,95,30.07,6.0,SE,4.6,-,N/A,,Clear,140,2013-03-30 00:55:00
8:55 PM,26.4,25.5,96,30.09,6.0,North,5.8,-,N/A,,Clear,10,2013-03-30 01:55:00
9:55 PM,17.1,15.1,92,30.10,3.0,Calm,Calm,-,N/A,,Clear,0,2013-03-30 02:55:00
10:05 PM,15.8,14.0,93,30.10,2.5,West,3.5,-,N/A,,Clear,270,2013-03-30 03:05:00
10:07 PM,15.8,14.0,93,30.10,1.5,Calm,Calm,-,N/A,,Clear,0,2013-03-30 03:07:00
10:08 PM,15.8,14.0,93,30.11,1.2,West,3.5,-,N/A,,Clear,280,2013-03-30 03:08:00
10:10 PM,15.8,14.0,93,30.10,1.0,Calm,Calm,-,N/A,,Clear,0,2013-03-30 03:10:00
10:11 PM,15.8,14.0,93,30.10,0.8,Calm,Calm,-,N/A,,Clear,0,2013-03-30 03:11:00
10:14 PM,15.8,14.0,93,30.10,0.5,WNW,3.5,-,N/A,Fog,Light Freezing Fog,300,2013-03-30 03:14:00
10:15 PM,15.8,14.0,93,30.10,0.5,Calm,Calm,-,N/A,Fog,Light Freezing Fog,0,2013-03-30 03:15:00
10:16 PM,15.8,14.0,93,30.10,0.8,Calm,Calm,-,N/A,,Clear,0,2013-03-30 03:16:00
10:17 PM,15.8,14.0,93,30.10,0.8,Calm,Calm,-,N/A,,Clear,0,2013-03-30 03:17:00
10:20 PM,15.8,14.0,93,30.10,0.8,Calm,Calm,-,N/A,,Clear,0,2013-03-30 03:20:00
10:21 PM,15.8,14.0,93,30.10,1.0,Calm,Calm,-,N/A,,Clear,0,2013-03-30 03:21:00
10:22 PM,15.8,14.0,93,30.10,1.2,Calm,Calm,-,N/A,,Clear,0,2013-03-30 03:22:00
10:23 PM,15.8,14.0,93,30.10,1.8,Calm,Calm,-,N/A,,Clear,0,2013-03-30 03:23:00
10:24 PM,15.8,14.0,93,30.10,2.0,Calm,Calm,-,N/A,,Clear,0,2013-03-30 03:24:00
10:26 PM,15.8,14.0,93,30.10,1.8,Calm,Calm,-,N/A,,Clear,0,2013-03-30 03:26:00
10:28 PM,15.8,14.0,93,30.10,1.2,Calm,Calm,-,N/A,,Clear,0,2013-03-30 03:28:00
10:29 PM,15.8,14.0,93,30.10,1.0,Calm,Calm,-,N/A,,Clear,0,2013-03-30 03:29:00
10:30 PM,15.8,14.0,93,30.10,0.8,Calm,Calm,-,N/A,,Clear,0,2013-03-30 03:30:00
10:31 PM,15.8,14.0,93,30.10,0.5,Calm,Calm,-,N/A,Fog,Light Freezing Fog,0,2013-03-30 03:31:00
10:33 PM,15.8,14.0,93,30.10,0.5,Calm,Calm,-,N/A,Fog,Light Freezing Fog,0,2013-03-30 03:33:00
10:34 PM,15.8,14.0,93,30.10,0.5,Calm,Calm,-,N/A,Fog,Light Freezing Fog,0,2013-03-30 03:34:00
10:35 PM,15.8,14.0,93,30.10,0.5,Calm,Calm,-,N/A,Fog,Light Freezing Fog,0,2013-03-30 03:35:00
10:37 PM,15.8,12.2,86,30.10,0.5,Calm,Calm,-,N/A,Fog,Light Freezing Fog,0,2013-03-30 03:37:00
10:47 PM,15.8,14.0,93,30.10,0.5,NW,3.5,-,N/A,Fog,Light Freezing Fog,320,2013-03-30 03:47:00
10:51 PM,15.8,12.2,86,30.10,0.5,WNW,3.5,-,N/A,Fog,Light Freezing Fog,300,2013-03-30 03:51:00
10:52 PM,15.8,12.2,86,30.10,0.5,NW,3.5,-,N/A,Fog,Light Freezing Fog,310,2013-03-30 03:52:00
10:54 PM,14.0,12.2,93,30.10,0.8,NW,3.5,-,N/A,,Clear,310,2013-03-30 03:54:00
10:55 PM,14.5,12.4,91,30.10,0.8,WNW,3.5,-,N/A,,Clear,300,2013-03-30 03:55:00
11:00 PM,14.0,12.2,93,30.10,0.5,WNW,3.5,-,N/A,Fog,Light Freezing Fog,290,2013-03-30 04:00:00
11:03 PM,14.0,12.2,93,30.10,0.5,West,3.5,-,N/A,Fog,Light Freezing Fog,280,2013-03-30 04:03:00
11:04 PM,14.0,12.2,93,30.10,0.2,West,3.5,-,N/A,Fog,Light Freezing Fog,280,2013-03-30 04:04:00
11:05 PM,14.0,10.4,86,30.09,0.2,West,3.5,-,N/A,Fog,Light Freezing Fog,270,2013-03-30 04:05:00
11:06 PM,14.0,10.4,86,30.09,0.2,West,3.5,-,N/A,Fog,Light Freezing Fog,270,2013-03-30 04:06:00
11:07 PM,14.0,10.4,86,30.10,0.2,West,3.5,-,N/A,Fog,Light Freezing Fog,260,2013-03-30 04:07:00
11:08 PM,14.0,10.4,86,30.10,0.2,West,3.5,-,N/A,Fog,Light Freezing Fog,270,2013-03-30 04:08:00
11:09 PM,14.0,10.4,86,30.10,0.2,West,3.5,-,N/A,Fog,Light Freezing Fog,270,2013-03-30 04:09:00
11:11 PM,14.0,10.4,86,30.10,0.2,Calm,Calm,-,N/A,Fog,Light Freezing Fog,0,2013-03-30 04:11:00
11:12 PM,14.0,10.4,86,30.10,0.2,Calm,Calm,-,N/A,Fog,Light Freezing Fog,0,2013-03-30 04:12:00
11:31 PM,14.0,10.4,86,30.09,0.2,WSW,4.6,-,N/A,Fog,Light Freezing Drizzle,240,2013-03-30 04:31:00
11:45 PM,14.0,12.2,93,30.09,0.2,West,3.5,-,N/A,Fog,Light Freezing Drizzle,260,2013-03-30 04:45:00
11:51 PM,14.0,12.2,93,30.09,0.2,West,3.5,-,N/A,Fog,Light Freezing Drizzle,260,2013-03-30 04:51:00
11:55 PM,14.4,12.2,91,30.09,0.2,West,4.6,-,0.00,Fog,Light Freezing Drizzle,270,2013-03-30 04:55:00
11:57 PM,14.0,12.2,93,30.09,0.2,West,4.6,-,N/A,Fog,Light Freezing Drizzle,270,2013-03-30 04:57:00